This is the latest recevied weather packets stored in our database for station/object SQ9NFI-4. If no packets are shown the sender has not sent any weather packets the latest 10 day(s).
| Time | Temp. | Humidity | Pressure | Rain* | Wind** | Luminosity | Snow |
|---|---|---|---|---|---|---|---|
| 1777825516 | 25.56° C | 25% | 1015.9 hPa | 0 mm | - | 85 W/m² | - |
| 1777825216 | 25.56° C | 25% | 1015.9 hPa | 0 mm | - | 95 W/m² | - |
| 1777824916 | 25.56° C | 24% | 1015.9 hPa | 0 mm | - | 100 W/m² | - |
| 1777824616 | 26.11° C | 23% | 1015.9 hPa | 0 mm | - | 111 W/m² | - |
| 1777824316 | 26.11° C | 23% | 1015.9 hPa | 0 mm | - | 122 W/m² | - |
| 1777824016 | 26.11° C | 24% | 1015.9 hPa | 0 mm | - | 130 W/m² | - |
| 1777823716 | 25.56° C | 24% | 1015.9 hPa | 0 mm | - | 143 W/m² | - |
| 1777823416 | 25.56° C | 23% | 1016.3 hPa | 0 mm | - | 151 W/m² | - |
| 1777822816 | 26.67° C | 23% | 1016.3 hPa | 0 mm | - | 175 W/m² | - |
| 1777822516 | 26.11° C | 22% | 1016.3 hPa | 0 mm | - | 188 W/m² | - |
| 1777822216 | 26.67° C | 22% | 1016.3 hPa | 0 mm | - | 200 W/m² | - |
| 1777821916 | 26.67° C | 22% | 1016.6 hPa | 0 mm | - | 214 W/m² | - |
| 1777821616 | 26.11° C | 22% | 1016.6 hPa | 0 mm | - | 228 W/m² | - |
| 1777821316 | 26.11° C | 22% | 1016.6 hPa | 0 mm | - | 240 W/m² | - |
| 1777821016 | 26.67° C | 25% | 1016.6 hPa | 0 mm | - | 255 W/m² | - |
| 1777820716 | 26.11° C | 21% | 1016.6 hPa | 0 mm | - | 268 W/m² | - |
| 1777820416 | 26.67° C | 23% | 1016.6 hPa | 0 mm | - | 280 W/m² | - |
| 1777820116 | 26.11° C | 23% | 1016.6 hPa | 0 mm | - | 294 W/m² | - |
| 1777819816 | 26.11° C | 21% | 1016.9 hPa | 0 mm | - | 269 W/m² | - |
| 1777819516 | 26.67° C | 23% | 1016.9 hPa | 0 mm | - | 314 W/m² | - |
| 1777818016 | 26.67° C | 21% | 1016.9 hPa | 0 mm | - | 383 W/m² | - |
| 1777817716 | 26.67° C | 22% | 1016.9 hPa | 0 mm | - | 397 W/m² | - |
| 1777817416 | 26.67° C | 22% | 1017.3 hPa | 0 mm | - | 412 W/m² | - |
| 1777817116 | 27.22° C | 24% | 1017.3 hPa | 0 mm | - | 419 W/m² | - |
| 1777816816 | 26.67° C | 24% | 1017.3 hPa | 0 mm | - | 434 W/m² | - |
* Rain latest hour (hover to see other rain measurements)
** Current wind speed in m/s (hover to see current wind gust speed)